Black River Falls, WI

10:44 PM CDT on May 26, 2018 (GMT -0500)
Black River Falls Area

Weather History for KBCK - October, 2011

Change the Weather History Date:

Saturday, October 1, 2011

  Actual Average (KCMY) Record (KCMY)
Temperature  
Mean Temperature 42 °F -  
Max Temperature 59 °F 67 °F 84 °F (1971)
Min Temperature 26 °F 41 °F 27 °F (1974)
Degree Days  
Heating Degree Days 22    
Moisture  
Dew Point 33 °F    
Average Humidity 75    
Maximum Humidity 100    
Minimum Humidity 36    
Precipitation  
Precipitation 0.00 in - - ()
Sea Level Pressure  
Sea Level Pressure 30.32 in    
Wind  
Wind Speed 1 mph (NNE)    
Max Wind Speed 5 mph    
Max Gust Speed -    
Visibility 10 miles    
Events      
Averages and records for this station are not official NWS values.
T = Trace of Precipitation, MM = Missing Value Source: NWS Daily Summary

Daily Weather History Graph

Daily Weather History Graph

Search for Another Location

Airport or City:

Astronomy

Oct. 01, 2011 Rise Set
Actual Time 7:00 AM CDT 6:44 PM CDT
Civil Twilight 6:32 AM CDT 7:13 PM CDT
Nautical Twilight 5:58 AM CDT 7:47 PM CDT
Astronomical Twilight 5:24 AM CDT 8:21 PM CDT
Moon 12:20 PM CDT (10/1) 9:29 PM CDT (10/1)
Length of Visible Light 12h 41m
Length of Day
11h 43m
Waxing Crescent, 24% of the Moon is Illuminated
Oct 1
Waxing Crescent
Oct 3
First Quarter
Oct 11
Full
Oct 19
Last Quarter
Oct 26
New

Hourly Weather History & Observations

Time (CDT) Temp. Windchill Dew Point Humidity Pressure Visibility Wind Dir Wind Speed Gust Speed Precip Events Conditions
12:15 AM 32.0 °F - 32.0 °F 100% 30.29 in 10.0 mi Calm Calm - N/A   Clear
12:35 AM 32.0 °F - 32.0 °F 100% 30.29 in 10.0 mi Calm Calm - N/A   Clear
12:55 AM 32.0 °F - 32.0 °F 100% 30.29 in 10.0 mi Calm Calm - N/A   Clear
1:15 AM 32.0 °F - 32.0 °F 100% 30.29 in 10.0 mi Calm Calm - N/A   Clear
1:35 AM 32.0 °F - 30.2 °F 93% 30.30 in 10.0 mi Calm Calm - N/A   Clear
1:55 AM 30.2 °F 26.7 °F 30.2 °F 100% 30.30 in 10.0 mi NE 3.5 mph - N/A   Clear
2:15 AM 30.2 °F - 30.2 °F 100% 30.30 in 10.0 mi Calm Calm - N/A   Clear
2:35 AM 28.4 °F - 28.4 °F 100% 30.30 in 10.0 mi Calm Calm - N/A   Clear
2:55 AM 30.2 °F - 30.2 °F 100% 30.30 in 10.0 mi Calm Calm - N/A   Clear
3:15 AM 30.2 °F - 30.2 °F 100% 30.30 in 10.0 mi Calm Calm - N/A   Clear
3:35 AM 28.4 °F - 28.4 °F 100% 30.31 in 10.0 mi Calm Calm - N/A   Clear
4:15 AM 30.2 °F - 28.4 °F 93% 30.31 in 10.0 mi Calm Calm - N/A   Clear
4:35 AM 28.4 °F - 28.4 °F 100% 30.32 in 10.0 mi Calm Calm - N/A   Clear
4:55 AM 28.4 °F - 28.4 °F 100% 30.33 in 10.0 mi Calm Calm - N/A   Clear
5:15 AM 28.4 °F - 28.4 °F 100% 30.33 in 10.0 mi Calm Calm - N/A   Clear
5:35 AM 28.4 °F - 26.6 °F 93% 30.33 in 10.0 mi Calm Calm - N/A   Scattered Clouds
5:55 AM 26.6 °F - 26.6 °F 100% 30.33 in 10.0 mi Calm Calm - N/A   Scattered Clouds
6:15 AM 26.6 °F - 26.6 °F 100% 30.33 in 10.0 mi Calm Calm - N/A   Scattered Clouds
6:35 AM 26.6 °F - 26.6 °F 100% 30.34 in 10.0 mi Calm Calm - N/A   Clear
6:55 AM 26.6 °F - 24.8 °F 93% 30.35 in 10.0 mi Calm Calm - N/A   Scattered Clouds
7:15 AM 26.6 °F - 26.6 °F 100% 30.36 in 10.0 mi Calm Calm - N/A   Scattered Clouds
7:55 AM 30.2 °F - 30.2 °F 100% 30.37 in 1.2 mi Calm Calm - N/A   Overcast
8:15 AM 32.0 °F - 32.0 °F 100% 30.37 in 10.0 mi Calm Calm - N/A   Scattered Clouds
8:35 AM 33.8 °F - 33.8 °F 100% 30.38 in 10.0 mi Calm Calm - N/A   Clear
9:15 AM 37.4 °F - 35.6 °F 93% 30.39 in 10.0 mi Calm Calm - N/A   Clear
9:35 AM 41.0 °F - 35.6 °F 81% 30.39 in 10.0 mi Calm Calm - N/A   Clear
9:55 AM 42.8 °F - 35.6 °F 76% 30.39 in 10.0 mi Calm Calm - N/A   Clear
10:15 AM 44.6 °F - 35.6 °F 71% 30.39 in 10.0 mi Calm Calm - N/A   Clear
10:35 AM 46.4 °F 44.3 °F 35.6 °F 66% 30.39 in 10.0 mi SE 4.6 mph - N/A   Clear
10:55 AM 46.4 °F 45.2 °F 35.6 °F 66% 30.39 in 10.0 mi East 3.5 mph - N/A   Clear
11:15 AM 48.2 °F - 33.8 °F 58% 30.39 in 10.0 mi NNE 3.5 mph - N/A   Clear
11:35 AM 50.0 °F - 35.6 °F 58% 30.39 in 10.0 mi North 3.5 mph - N/A   Clear
11:55 AM 50.0 °F - 33.8 °F 54% 30.38 in 10.0 mi Calm Calm - N/A   Clear
12:15 PM 51.8 °F - 33.8 °F 50% 30.38 in 10.0 mi Calm Calm - N/A   Clear
12:35 PM 51.8 °F - 33.8 °F 50% 30.37 in 10.0 mi Calm Calm - N/A   Clear
12:55 PM 53.6 °F - 33.8 °F 47% 30.37 in 10.0 mi East 3.5 mph - N/A   Clear
1:15 PM 53.6 °F - 33.8 °F 47% 30.36 in 10.0 mi East 4.6 mph - N/A   Clear
1:35 PM 53.6 °F - 33.8 °F 47% 30.35 in 10.0 mi Calm Calm - N/A   Clear
1:55 PM 55.4 °F - 33.8 °F 44% 30.33 in 10.0 mi SW 3.5 mph - N/A   Clear
2:15 PM 55.4 °F - 33.8 °F 44% 30.33 in 10.0 mi West 3.5 mph - N/A   Clear
2:35 PM 55.4 °F - 33.8 °F 44% 30.32 in 10.0 mi NE 3.5 mph - N/A   Clear
2:55 PM 57.2 °F - 33.8 °F 41% 30.30 in 10.0 mi Calm Calm - N/A   Clear
3:15 PM 59.0 °F - 33.8 °F 39% 30.30 in 10.0 mi West 4.6 mph - N/A   Clear
3:35 PM 59.0 °F - 32.0 °F 36% 30.30 in 10.0 mi Calm Calm - N/A   Clear
3:55 PM 59.0 °F - 33.8 °F 39% 30.30 in 10.0 mi West 4.6 mph - N/A   Clear
4:15 PM 59.0 °F - 32.0 °F 36% 30.29 in 10.0 mi Calm Calm - N/A   Clear
4:35 PM 59.0 °F - 32.0 °F 36% 30.29 in 10.0 mi Calm Calm - N/A   Clear
4:55 PM 59.0 °F - 32.0 °F 36% 30.28 in 10.0 mi NW 3.5 mph - N/A   Clear
5:15 PM 59.0 °F - 32.0 °F 36% 30.28 in 10.0 mi Calm Calm - N/A   Clear
5:35 PM 59.0 °F - 32.0 °F 36% 30.28 in 10.0 mi Calm Calm - N/A   Clear
5:55 PM 59.0 °F - 33.8 °F 39% 30.28 in 10.0 mi Calm Calm - N/A   Clear
6:15 PM 55.4 °F - 35.6 °F 47% 30.28 in 10.0 mi Calm Calm - N/A   Clear
6:35 PM 51.8 °F - 41.0 °F 67% 30.27 in 10.0 mi Calm Calm - N/A   Clear
6:55 PM 46.4 °F - 41.0 °F 81% 30.27 in 10.0 mi Calm Calm - N/A   Clear
7:15 PM 42.8 °F - 39.2 °F 87% 30.26 in 10.0 mi Calm Calm - N/A   Clear
7:35 PM 42.8 °F - 37.4 °F 81% 30.27 in 10.0 mi Calm Calm - N/A   Clear
7:55 PM 39.2 °F - 35.6 °F 87% 30.26 in 10.0 mi Calm Calm - N/A   Clear
8:15 PM 37.4 °F - 35.6 °F 93% 30.27 in 10.0 mi Calm Calm - N/A   Clear
8:35 PM 37.4 °F - 35.6 °F 93% 30.26 in 10.0 mi Calm Calm - N/A   Clear
9:15 PM 35.6 °F - 33.8 °F 93% 30.26 in 10.0 mi Calm Calm - N/A   Clear
9:35 PM 33.8 °F - 33.8 °F 100% 30.26 in 10.0 mi Calm Calm - N/A   Clear
9:55 PM 33.8 °F - 32.0 °F 93% 30.26 in 10.0 mi Calm Calm - N/A   Clear
10:35 PM 32.0 °F - 32.0 °F 100% 30.26 in 10.0 mi Calm Calm - N/A   Clear
10:55 PM 32.0 °F - 32.0 °F 100% 30.27 in 10.0 mi Calm Calm - N/A   Clear